Flag for Germany Weather past 2 weeks in Tönisvorst, North Rhine-Westphalia, Germany

Now
57 °F

Light rain. Partly sunny.


Feels Like: 53 °F
Forecast: 53 / 66 °F
Wind: 18 mph from West

Location: Monchengladbach Airport

Current Time: Jul 28, 2015 at 1:25:38 PM

Latest Report: Jul 28, 2015 at 12:50 PM


Visibility: 5 mi

Pressure: 29.74 "Hg

Humidity: 94%

Dew point: 55 °F

Location of TönisvorstLocation

Historic Weather in Tönisvorst — Graph

°F

Tönisvorst temperature yesterday

Maximum temperature yesterday: 70 °F (at 5:50 PM)
Minimum temperature yesterday: 61 °F (at 7:50 AM)
Average temperature yesterday: 64 °F

Past Weeks' High & Low Weather Summary

 TemperatureHumidityPressure
High90 °F (Jul 17, 4:50 PM)100% (Jul 13, 12:50 PM)30.12 "Hg (Jul 13, 12:50 PM)
Low55 °F (Jul 26, 7:50 AM)29% (Jul 17, 4:50 PM)29.50 "Hg (Jul 25, 7:50 AM)
Average70 °F70%29.91 "Hg
* Reported Jul 13 12:20 PM — Jul 28 12:20 PM, Tönisvorst, Weather by CustomWeather, © 2015

Note: Actual official high and low records may vary slightly from our data, if they occured in-between our weather recording intervals... More about our weather records

Advertising

Tönisvorst weather history for previous 24 hours

 ConditionsComfort  
Time TempWeatherWind HumidityBarometerVisibility
12:20 PM
Tue, Jul 28
61 °FLight rain. Partly sunny.18 mph72%29.71 "Hg5 mi
11:50 AM63 °FScattered clouds.14 mph68%29.71 "HgN/A
11:20 AM63 °FScattered clouds.16 mph68%29.71 "HgN/A
10:50 AM63 °FScattered clouds.18 mph68%29.71 "HgN/A
10:20 AM63 °FPartly sunny.21 mph68%29.68 "HgN/A
9:50 AM63 °FPartly sunny.14 mph73%29.71 "HgN/A
9:20 AM61 °FPartly sunny.18 mph72%29.68 "HgN/A
8:50 AM59 °FScattered clouds.13 mph77%29.68 "HgN/A
8:20 AM59 °FBroken clouds.12 mph77%29.68 "HgN/A
7:50 AM59 °FBroken clouds.9 mph77%29.68 "HgN/A
8:20 PM
Mon, Jul 27
64 °FPassing clouds.8 mph78%29.62 "HgN/A
7:50 PM64 °FPassing clouds.16 mph83%29.62 "HgN/A
7:20 PM68 °FPassing clouds.14 mph64%29.59 "HgN/A
6:50 PM70 °FPassing clouds.13 mph60%29.59 "HgN/A
6:20 PM70 °FPassing clouds.15 mph60%29.59 "HgN/A
5:50 PM70 °FPassing clouds.14 mph60%29.59 "HgN/A
5:20 PM68 °FPassing clouds.12 mph69%29.59 "HgN/A
4:50 PM68 °FPassing clouds.16 mph64%29.59 "HgN/A
4:20 PM68 °FPassing clouds.16 mph64%29.59 "HgN/A
3:50 PM66 °FPartly cloudy.12 mph68%29.59 "HgN/A
3:20 PM66 °FPassing clouds.17 mph73%29.59 "HgN/A
2:50 PM66 °FPassing clouds.10 mph78%29.59 "HgN/A
2:20 PM63 °FPassing clouds.12 mph83%29.59 "HgN/A
1:50 PM63 °FPassing clouds.18 mph83%29.56 "HgN/A
1:20 PM63 °FPartly sunny.10 mph88%29.56 "HgN/A
Weather by CustomWeather, © 2015

See weather overviewHow to use our weather pages